Regional Weather Roundup
Issued by NWS

Home | Current Version | Previous Version | Text Only | Print | Product List | Glossary Off
Versions: 1 2 3 4 5 6 7 8 9 10 11 12 13 14 15 16 17 18 19 20 21 22 23 24 25 26 27

000
ASUS45 KTFX 220110
RWRMT
MONTANA REGIONAL WEATHER ROUNDUP
NATIONAL WEATHER SERVICE GREAT FALLS MT
700 PM MDT FRI JUL 21 2017

NOTE: "FAIR" INDICATES FEW OR NO CLOUDS BELOW 12000 FEET WITH NO
SIGNIFICANT WEATHER AND/OR OBSTRUCTIONS TO VISIBILITY.

MTZ001>007-043-220200-
WEST OF THE DIVIDE

CITY           SKY/WX    TMP DP  RH WIND       PRES   REMARKS
KALISPELL      SUNNY     81  36  19 W7        30.03R
MISSOULA       SUNNY     83  30  14 NW7       30.05S
BUTTE          SUNNY     80  21  11 NW18      30.14S
MULLAN PASS    SUNNY     64  34  32 VRB3      30.24F
ANACONDA         N/A     79  18  10 W14G22    30.11S
DEER LODGE       N/A     79  28  15 W14       30.11S
EUREKA           N/A     79  39  24 MISG      30.04R
HAMILTON         N/A     84  25  11 W10       30.06S
LIBBY            N/A     77  34  20 CALM      30.04S
$$

MTZ008-052>055-220200-
SOUTHWEST MONTANA

CITY           SKY/WX    TMP DP  RH WIND       PRES   REMARKS
BOZEMAN        SUNNY     85  32  15 NW10      30.03S
DILLON         SUNNY     81  43  26 NW9       30.08F
W YELLOWSTONE  SUNNY     77  30  18 S12       30.20S
ENNIS          SUNNY     84  23  10 NW12G18   30.15S
THREE FORKS      N/A     87  32  14 N7        30.02S
$$

MTZ009-010-012-014-046-048-049-054-220200-
EAST SLOPES AND CENTRAL MONTANA

CITY           SKY/WX    TMP DP  RH WIND       PRES   REMARKS
CUT BANK       SUNNY     79  29  16 NW15G21   30.02R
GREAT FALLS    SUNNY     84  20   9 W20       29.98S
MALMSTROM AFB  SUNNY     84  23  10 NW15G22   29.98S
HELENA         SUNNY     85  29  13 W14G25    30.04R
CHOTEAU          N/A     81  25  12 NW13G20   30.04R
$$

MTZ011-013-016-021-045-047-050-051-220200-
NORTH CENTRAL MONTANA

CITY           SKY/WX    TMP DP  RH WIND       PRES   REMARKS
HAVRE          SUNNY     85  30  13 NW20G28   29.91S
LEWISTOWN      SUNNY     83  22  10 NW10G20   30.01R
N BAR RANCH      N/A     81  21  11 NW15      30.05S
CHINOOK          N/A     84  30  14 W12G23    29.90R
$$

MTZ017>020-022>027-061-062-220200-
NORTHEAST MONTANA

CITY           SKY/WX    TMP DP  RH WIND       PRES   REMARKS
GLASGOW        SUNNY     86  27  11 NW16      29.86F
JORDAN           N/A     88  23   9 NW13G23   29.89S
SIDNEY         SUNNY     89  31  12 NW17G24   29.84R
WOLF POINT     SUNNY     88  32  13 NW16      29.86S
MALTA          SUNNY     86  27  11 W18G24    29.88R
PLENTYWOOD       N/A     82  45  26 NW15G24   29.85S
POPLAR           N/A     86  34  15 NW16G22   29.85S
SCOBEY           N/A     82  40  22 NW10      29.88S
$$

MTZ028>42-056>058-220200-
SOUTHCENTRAL AND SOUTHEAST MONTANA

CITY           SKY/WX    TMP DP  RH WIND       PRES   REMARKS
BAKER          SUNNY     89  28  11 NW14      29.91S
BILLINGS       SUNNY     91  21   8 NW12      29.95S
LIVINGSTON     SUNNY     86  28  12 NW17G25   30.02F
MILES CITY     SUNNY     92  24   8 W8        29.87F
BIG TIMBER     SUNNY     84  25  11 NW18G24   30.03S
EKALAKA          N/A     85  28  12 W10       29.94S
FORSYTH          N/A     91  32  12 N3        29.87S
LAUREL           N/A     90  26  10 W10       29.96R
$$

REGIONAL REPORTS...DAKOTAS

CITY           SKY/WX    TMP DP  RH WIND       PRES   REMARKS
WILLISTON      SUNNY     88  44  21 NW22G28   29.82R
MINOT          MOSUNNY   84  66  54 NE7       29.73F
DICKINSON      SUNNY     88  37  16 NW15      29.83R
BEACH            N/A     84  28  13 NW18      29.92S
CROSBY           N/A     81  45  28 NW15G23   29.82R
TIOGA            N/A     82  50  32 NW20G26   29.84R
WATFORD CITY     N/A     88  36  15 W15       29.81S
BISMARCK       SUNNY     88  69  53 SE7       29.76F HX  92
GRAND FORKS    CLOUDY    82  72  71 S3        29.74S
FARGO          MOSUNNY   81  59  47 SW12      29.73F
BUFFALO SD       N/A     88  40  18 NW12      29.84S
RAPID CITY     SUNNY     90  45  21 N15       29.90S
$$

REGIONAL REPORTS...WYOMING/IDAHO/WASHINGTON

CITY           SKY/WX    TMP DP  RH WIND       PRES   REMARKS
GILLETTE       SUNNY     88  34  14 N10       30.00F
SHERIDAN       SUNNY     89  34  14 CALM      29.99F
BUFFALO WY     SUNNY     84  36  18 N8        30.07S
CODY           SUNNY     81  41  24 N9        30.05S
YELLOWSTONE LA   N/A     72  24  16 NW3       30.31S
IDAHO FALLS    SUNNY     87  37  17 S14       30.05F
BOISE          SUNNY     92  35  13 NW15      29.97F
SPOKANE        PTSUNNY   80  36  20 SW6       30.08F
$$

REGIONAL REPORTS...ALBERTA

CITY           SKY/WX    TMP DP  RH WIND       PRES   REMARKS
EDMONTON       PTSUNNY   64  59  82 W3        29.91R
CALGARY        PTSUNNY   70  45  40 N10       30.00S
LETHBRIDGE     PTSUNNY   73  46  38 NE14G23   29.99R
MEDICINE HAT   PTSUNNY   73  43  33 NW22G29   29.94R
WATERTON GATE    N/A     72  39  30 W9          N/A
CARDSTON         N/A     73  41  31 NW12G18     N/A
MILK RIVER       N/A     77  39  25 NW18G26     N/A
$$

REGIONAL REPORTS...SASKATCHEWAN

CITY           SKY/WX    TMP DP  RH WIND       PRES   REMARKS
SWIFT CURRENT  SUNNY     72  46  40 NW7       29.90S
REGINA         MOSUNNY   77  55  47 NW24      29.81R
SASKATOON      CLOUDY    63  59  88 NE7       29.88S
CYPRESS HILLS    N/A     70  32  24 W9G20       N/A
VAL MARIE        N/A     81  30  16 NW21        N/A
ROCKGLEN         N/A     77  39  25 W8          N/A
ASSINIBOIA       N/A     68  54  60 NW8         N/A
$$




USA.gov is the U.S. government's official web portal to all federal, state and local government web resources and services.